User: anonymous   Login
Location: Astronight Observatory
(42.6003°N, 71.2981°W)
Time: 01:29:12
(UTC-05:00)
Language:

DELTA 2 R/B (1) - Orbit

View from above orbital plane
View from above orbital plane
View from above satellite
View from above satellite

Ground track
Ground track

The orbit data is extracted from the following two-line orbital elements,

1 27665U 03005C   15062.48077953  .00000119  00000-0  80972-4 0  9992
2 27665 039.5767 050.2571 0009212 231.8590 278.8144 14.28303706631263
Epoch (UTC): 03 March 2015 11:32:19
Eccentricity: 0.0009212
inclination: 39.5767°
perigee height: 791 km
apogee height: 804 km
right ascension of ascending node: 50.2571°
argument of perigee: 231.8590°
revolutions per day: 14.28303706
mean anomaly at epoch: 278.8144°
orbit number at epoch: 63126

The dashed part of the orbit path shows where the satellite is in the earth's shadow,  

DLR